Wind_Speed
53 54 55 57 59 60 61 61 62 63 64 65 65 66 66 66 66 67 66 65 64 64 65 66 68 69 69 69 69 69 70 71 72 70 70 70 70 69 67 65 61 57 53
52 52 53 55 56 57 59 60 62 63 64 65 66 66 65 65 65 66 65 64 64 64 65 66 67 68 68 68 69 68 69 70 72 72 69 68 67 66 64 61 58 55 52
50 51 52 54 55 56 58 60 61 62 63 64 65 65 64 64 64 64 64 63 63 63 64 65 66 68 67 68 67 67 68 69 71 71 69 67 65 63 61 58 55 52 51
49 50 52 53 55 57 58 59 61 62 62 63 63 62 63 63 62 62 61 61 61 62 62 64 66 67 66 66 66 66 67 68 69 69 68 66 63 62 60 56 53 50 49
48 50 52 53 55 56 57 58 59 59 60 60 60 61 61 61 60 59 59 60 60 60 61 64 65 66 65 65 65 64 65 66 67 67 66 64 62 61 58 55 52 49 47
49 50 51 53 53 54 55 55 56 57 57 57 58 58 58 57 56 57 57 58 58 59 61 63 64 64 64 64 63 63 64 65 65 65 64 62 61 59 56 53 52 49 46
49 49 50 50 51 52 53 54 54 54 54 54 54 55 54 54 55 55 56 56 56 57 59 60 61 61 62 62 61 61 61 62 63 63 62 60 60 58 55 51 50 48 46
46 46 47 48 49 50 51 52 52 52 52 53 53 53 53 53 54 55 55 55 56 57 58 59 59 59 60 60 59 59 59 59 59 60 60 58 57 55 52 50 48 45 43
44 45 46 47 49 50 51 52 52 52 52 53 53 53 53 52 53 53 54 55 56 56 57 58 58 58 58 58 57 57 57 56 56 57 57 56 55 53 50 48 46 44 41
45 46 47 47 49 50 51 52 53 53 53 54 54 53 53 53 53 54 54 55 55 55 56 56 57 56 56 56 56 56 55 54 54 54 53 53 52 50 47 46 44 41 39
47 47 48 50 50 51 52 52 53 53 54 55 54 53 53 53 53 53 54 54 55 55 55 55 55 55 55 55 55 54 54 53 52 52 51 51 49 46 43 42 41 39 36
49 50 51 52 52 52 53 53 54 55 55 55 54 54 54 53 53 53 54 54 54 54 53 53 53 53 53 53 53 52 52 51 51 50 49 48 45 43 40 39 38 36 34
51 53 53 54 54 54 55 55 55 55 56 55 54 54 54 53 54 54 54 53 53 52 52 52 51 51 51 51 51 50 50 49 49 48 46 44 42 39 38 37 35 33 31
53 54 55 55 55 56 56 55 55 55 55 54 55 55 55 54 54 54 53 52 51 51 50 50 50 50 50 49 49 49 48 48 47 45 42 40 39 37 36 35 32 30 28
54 55 56 57 56 56 56 55 55 55 55 55 55 55 55 54 54 53 52 51 49 49 48 47 48 48 48 47 47 47 47 46 45 43 40 38 37 35 34 33 30 27 25
56 56 57 57 56 56 56 55 55 56 55 55 55 54 53 53 52 50 49 48 47 47 46 45 45 46 46 46 45 45 45 44 42 40 38 36 35 33 32 31 28 25 23
58 57 57 57 56 56 56 56 56 56 55 55 54 54 53 52 50 49 47 46 45 44 43 43 43 44 44 43 43 42 42 41 40 38 36 35 34 32 30 27 25 23 21
57 58 57 57 57 57 57 57 57 56 55 54 54 53 52 50 48 45 44 43 42 41 40 41 41 41 41 41 40 39 39 38 38 36 35 34 32 30 28 25 23 21 19
57 57 56 56 56 56 56 57 57 56 55 54 53 51 49 47 45 42 41 40 39 39 38 38 39 39 39 38 37 38 37 37 36 35 34 33 30 28 25 23 21 19 17
55 54 54 55 55 55 56 57 56 55 55 53 51 49 47 45 42 40 38 37 36 36 35 36 36 36 36 35 36 36 35 35 34 34 33 31 28 26 23 21 19 17 15
52 52 53 53 53 54 55 55 54 54 53 51 49 47 44 41 39 37 34 33 33 33 33 33 33 33 33 34 34 34 33 33 33 32 31 29 26 24 22 19 17 15 13
50 50 51 52 52 54 54 55 55 54 52 49 45 41 38 36 34 32 30 30 30 30 30 30 30 30 31 32 33 32 32 32 32 31 29 27 24 21 19 16 14 13 11
48 49 50 52 53 54 54 54 52 50 46 42 37 34 32 30 28 27 26 26 26 26 27 27 28 28 30 31 31 30 30 30 31 30 27 25 21 18 15 13 11 10 9
48 49 51 52 53 52 51 50 48 44 39 35 31 27 25 23 22 22 22 22 22 23 24 25 26 27 29 29 29 29 29 29 29 28 25 22 18 14 11 10 9 8 8
48 49 50 50 50 48 47 44 40 36 32 27 23 21 19 19 18 18 18 18 19 21 22 23 24 26 28 28 28 28 28 29 28 26 23 18 13 9 7 6 6 6 5
46 47 47 47 46 44 42 37 33 29 25 21 18 17 16 15 14 14 15 16 17 19 20 22 24 25 27 27 27 27 27 27 26 23 19 13 8 5 4 4 4 4 4
Wind_Direction
289 288 288 287 287 288 289 289 290 291 291 292 293 294 295 297 298 299 300 301 302 302 302 302 303 304 305 306 307 307 309 310 313 314 313 313 313 312 311 310 309 307 305
289 289 289 289 289 289 289 290 290 291 292 293 293 295 296 296 297 299 299 300 300 301 301 301 303 304 305 306 307 308 309 311 313 314 315 314 314 313 312 311 309 307 306
291 291 291 291 292 292 292 292 292 292 292 293 294 294 295 296 297 298 299 299 299 299 300 301 303 304 305 306 307 308 310 311 313 314 316 316 315 314 313 311 310 308 306
293 293 293 293 294 293 293 292 292 292 292 293 293 293 294 295 295 296 297 297 298 299 300 302 303 304 306 306 307 308 310 312 313 315 316 316 316 316 314 313 311 308 307
295 294 293 293 293 294 294 293 293 293 292 293 294 294 294 294 294 295 295 296 298 298 300 302 303 304 305 306 308 309 310 312 313 315 317 317 318 317 316 314 313 311 309
296 295 294 294 294 293 294 294 294 294 294 294 295 295 295 294 294 295 296 297 298 298 300 302 303 304 305 307 308 309 311 312 314 315 317 318 318 318 316 315 314 313 312
296 296 296 296 295 295 296 296 295 295 295 296 297 297 297 296 295 295 296 298 298 299 300 301 303 304 305 307 308 310 311 313 314 315 317 318 318 318 317 316 315 314 313
296 296 297 297 297 297 297 297 296 296 296 296 297 297 297 297 296 296 297 298 299 299 300 301 303 304 306 307 308 310 311 313 314 316 317 317 318 318 317 317 316 315 314
297 298 298 298 298 298 298 297 296 296 297 297 297 296 297 297 296 296 297 299 299 300 300 301 303 304 306 307 309 310 312 313 314 315 316 317 318 319 318 317 317 316 316
298 300 300 301 300 299 299 298 297 297 297 297 297 296 297 296 296 296 297 298 299 300 301 302 303 304 306 307 309 311 312 314 315 316 316 317 318 318 317 317 318 318 318
299 300 301 301 302 301 300 299 298 298 298 298 297 297 296 296 296 297 298 298 299 300 300 301 303 304 306 307 309 311 313 315 316 316 317 318 318 318 317 317 318 319 319
299 300 300 301 301 301 301 300 299 298 299 298 298 297 296 296 296 297 298 298 299 300 300 302 303 304 306 308 310 312 314 315 316 317 318 319 318 318 318 318 318 319 320
300 300 300 301 301 301 301 300 299 299 299 299 298 298 297 297 297 297 298 298 298 298 299 301 302 304 306 308 310 312 314 316 317 318 318 318 318 318 318 318 318 319 319
300 301 301 301 301 301 301 301 300 300 299 299 299 298 298 297 297 296 297 298 298 298 298 300 302 304 306 308 310 312 315 316 317 318 318 318 318 317 318 318 317 317 318
300 301 301 301 301 301 301 302 301 301 301 300 300 299 298 297 297 296 296 296 297 297 298 299 301 304 307 308 311 313 315 317 318 319 318 318 318 316 317 317 316 314 316
301 301 301 301 301 301 301 302 302 302 302 301 300 300 300 299 298 296 295 294 295 296 297 299 301 304 306 309 311 314 316 317 318 319 318 317 317 316 316 315 313 312 312
302 302 302 302 302 302 302 302 302 302 302 301 301 300 300 300 298 295 293 293 293 295 296 298 301 304 307 310 312 314 316 317 318 318 318 317 317 316 315 313 311 310 309
303 303 303 302 302 302 303 303 303 303 302 302 301 300 300 300 298 294 291 292 292 294 296 298 301 305 308 310 313 315 317 317 318 318 318 317 316 315 313 310 308 308 308
303 303 304 304 304 304 304 304 304 304 303 302 301 300 299 298 296 293 291 291 292 294 296 299 302 305 308 311 314 316 317 318 318 319 318 317 315 314 311 307 304 305 304
305 305 305 306 306 306 306 306 306 304 303 302 300 299 298 296 294 292 289 290 292 293 295 299 303 306 309 312 315 316 318 319 319 320 319 317 315 312 308 303 300 300 299
306 307 307 308 308 309 309 308 307 306 305 303 300 298 297 294 291 289 288 289 291 294 297 300 304 307 311 314 316 317 319 320 321 321 320 318 314 310 306 299 296 294 290
308 309 310 311 311 311 310 309 308 308 306 304 301 298 294 291 289 286 286 288 291 295 299 302 305 309 313 316 318 319 320 321 322 322 320 318 313 308 302 295 292 287 280
311 312 313 313 313 312 312 311 310 310 308 305 301 298 295 291 287 285 285 287 291 296 300 304 308 312 315 318 319 321 322 322 323 322 320 317 312 305 299 292 288 282 273
313 314 315 315 315 314 314 313 313 311 309 306 303 299 295 290 286 285 286 289 294 299 304 307 312 316 319 321 322 323 323 324 324 323 321 316 309 301 295 290 284 278 269
316 317 317 318 318 317 316 316 316 315 313 309 305 301 295 289 288 289 291 295 300 304 309 313 317 320 323 324 325 325 325 326 326 324 322 316 307 296 290 284 277 270 257
318 319 320 321 321 320 320 319 318 318 317 312 306 303 299 294 294 296 298 302 307 311 316 320 324 325 327 328 328 328 328 328 329 327 324 318 303 285 273 259 252 248 238
Height
5685 5680 5674 5669 5662 5656 5651 5645 5639 5633 5627 5620 5614 5608 5602 5595 5588 5581 5574 5566 5558 5550 5541 5532 5522 5512 5503 5493 5483 5473 5462 5452 5443 5434 5419 5405 5391 5376 5363 5350 5339 5330 5322
5671 5665 5659 5653 5647 5641 5635 5629 5623 5617 5611 5604 5598 5592 5586 5579 5572 5565 5557 5550 5542 5534 5525 5516 5507 5497 5487 5477 5467 5456 5446 5434 5424 5414 5403 5389 5375 5361 5348 5336 5325 5315 5307
5656 5650 5644 5638 5632 5626 5620 5613 5607 5601 5594 5588 5582 5575 5569 5563 5556 5549 5541 5534 5526 5518 5509 5500 5491 5481 5472 5461 5451 5441 5430 5419 5407 5396 5386 5373 5361 5347 5334 5323 5312 5302 5293
5640 5635 5629 5623 5617 5611 5604 5598 5591 5585 5578 5572 5565 5559 5553 5546 5540 5533 5526 5518 5510 5502 5494 5485 5476 5466 5457 5446 5436 5425 5414 5404 5392 5380 5370 5358 5346 5333 5319 5309 5300 5290 5281
5625 5620 5614 5608 5601 5595 5589 5582 5575 5569 5562 5556 5549 5543 5537 5530 5524 5517 5510 5503 5495 5487 5479 5470 5460 5451 5441 5431 5421 5411 5400 5389 5377 5365 5354 5343 5331 5318 5306 5295 5286 5278 5269
5610 5604 5598 5592 5586 5580 5573 5566 5560 5553 5547 5540 5534 5527 5521 5514 5508 5501 5494 5487 5480 5472 5464 5455 5446 5436 5427 5416 5406 5396 5386 5374 5363 5351 5340 5329 5317 5305 5294 5283 5273 5265 5258
5596 5590 5583 5577 5571 5564 5558 5551 5544 5538 5532 5525 5519 5512 5506 5499 5492 5485 5479 5472 5465 5457 5448 5440 5431 5422 5412 5403 5393 5383 5372 5360 5349 5338 5327 5316 5305 5294 5283 5273 5262 5252 5244
5581 5575 5569 5562 5556 5550 5543 5536 5530 5523 5517 5511 5505 5498 5491 5485 5478 5471 5464 5457 5450 5442 5434 5425 5417 5408 5398 5389 5380 5371 5360 5349 5337 5326 5316 5305 5293 5282 5271 5262 5252 5244 5236
5568 5562 5555 5548 5542 5535 5529 5522 5515 5509 5503 5497 5490 5483 5477 5471 5463 5456 5449 5443 5436 5428 5420 5411 5403 5394 5385 5376 5368 5359 5349 5338 5326 5315 5304 5293 5282 5271 5260 5251 5243 5234 5227
5555 5548 5541 5534 5528 5521 5514 5507 5501 5495 5489 5482 5476 5469 5463 5456 5449 5442 5435 5429 5422 5414 5406 5398 5389 5381 5372 5363 5354 5346 5337 5327 5316 5306 5295 5284 5272 5262 5252 5242 5234 5225 5218
5542 5535 5528 5521 5513 5507 5500 5493 5486 5480 5474 5467 5461 5454 5448 5441 5434 5427 5421 5414 5407 5399 5392 5384 5376 5368 5359 5351 5342 5333 5324 5315 5305 5295 5285 5274 5264 5254 5245 5236 5227 5218 5211
5528 5521 5514 5507 5500 5492 5485 5478 5471 5465 5458 5452 5445 5439 5432 5426 5419 5413 5406 5400 5393 5386 5378 5371 5363 5355 5347 5339 5330 5322 5313 5303 5294 5285 5275 5265 5255 5246 5237 5229 5221 5213 5205
5514 5507 5500 5493 5485 5478 5471 5464 5456 5449 5443 5436 5430 5423 5417 5410 5404 5397 5391 5385 5378 5372 5365 5358 5351 5343 5335 5327 5319 5311 5302 5293 5284 5275 5265 5256 5247 5238 5230 5223 5215 5208 5201
5499 5492 5485 5478 5471 5463 5455 5448 5441 5434 5427 5421 5414 5408 5401 5395 5388 5382 5376 5370 5364 5358 5352 5345 5338 5331 5324 5316 5308 5300 5291 5282 5274 5265 5256 5248 5239 5231 5224 5217 5210 5203 5197
5484 5477 5470 5463 5455 5448 5441 5433 5426 5419 5411 5405 5398 5392 5385 5379 5372 5366 5361 5356 5350 5344 5338 5333 5326 5320 5313 5306 5298 5289 5281 5273 5264 5256 5247 5240 5232 5225 5217 5210 5204 5198 5193
5469 5462 5455 5447 5440 5433 5426 5419 5411 5404 5396 5389 5382 5376 5370 5363 5356 5351 5346 5341 5336 5331 5326 5321 5315 5309 5302 5295 5287 5279 5271 5263 5255 5247 5239 5232 5225 5218 5211 5205 5199 5194 5190
5453 5446 5439 5432 5424 5417 5410 5403 5397 5389 5381 5374 5367 5361 5354 5348 5342 5336 5331 5327 5323 5319 5314 5310 5304 5298 5292 5285 5278 5270 5262 5254 5247 5239 5232 5225 5218 5212 5205 5200 5195 5190 5186
5438 5430 5423 5416 5409 5402 5394 5387 5380 5373 5366 5359 5352 5345 5339 5333 5327 5322 5318 5315 5311 5307 5303 5299 5294 5288 5282 5275 5268 5261 5254 5246 5239 5231 5224 5218 5211 5205 5200 5195 5190 5186 5183
5423 5415 5408 5401 5393 5386 5379 5371 5364 5357 5350 5343 5336 5330 5324 5319 5314 5310 5306 5303 5300 5297 5293 5289 5284 5279 5273 5267 5260 5253 5246 5239 5231 5224 5217 5211 5204 5199 5194 5190 5186 5183 5179
5409 5401 5393 5386 5379 5371 5363 5356 5348 5341 5333 5327 5321 5315 5310 5306 5302 5298 5295 5293 5290 5287 5283 5279 5275 5270 5264 5258 5252 5245 5238 5231 5224 5217 5211 5204 5198 5193 5188 5185 5182 5179 5176
5395 5388 5380 5372 5364 5356 5348 5340 5332 5325 5318 5311 5305 5300 5296 5292 5290 5287 5285 5283 5281 5278 5274 5271 5266 5261 5256 5250 5244 5238 5231 5224 5217 5211 5204 5198 5192 5187 5183 5180 5177 5175 5173
5381 5374 5367 5358 5350 5342 5334 5326 5317 5309 5302 5296 5290 5286 5282 5280 5278 5277 5275 5274 5272 5269 5266 5263 5258 5254 5249 5243 5237 5230 5224 5217 5211 5204 5198 5192 5186 5182 5178 5175 5173 5171 5170
5369 5362 5354 5346 5337 5328 5320 5311 5302 5294 5287 5281 5277 5274 5271 5269 5268 5267 5266 5266 5264 5262 5259 5255 5251 5247 5242 5236 5230 5224 5217 5211 5204 5198 5192 5186 5181 5177 5174 5172 5170 5169 5168
5357 5350 5341 5333 5324 5315 5306 5297 5289 5281 5275 5270 5267 5264 5262 5261 5260 5260 5259 5259 5257 5255 5252 5249 5245 5241 5235 5230 5223 5217 5211 5205 5198 5192 5186 5181 5176 5173 5171 5169 5168 5167 5166
5346 5338 5329 5320 5311 5302 5294 5285 5278 5272 5266 5262 5259 5258 5256 5255 5255 5255 5254 5253 5252 5250 5247 5243 5239 5235 5229 5223 5217 5211 5205 5199 5192 5186 5180 5176 5172 5170 5169 5167 5166 5165 5165
5335 5327 5318 5309 5300 5292 5284 5276 5270 5265 5260 5257 5255 5254 5252 5252 5252 5251 5251 5249 5247 5245 5242 5238 5234 5229 5224 5218 5211 5205 5199 5193 5187 5181 5176 5172 5170 5168 5167 5166 5166 5165 5165